Weather Roundup
Issued by NWS Chicago, IL

Home | Current Version | Previous Version | Text Only | Print | Product List | Glossary On
Versions: 1 2 3 4 5 6 7 8 9 10 11 12 13 14 15 16 17 18 19 20 21 22 23 24 25 26 27 28 29 30 31 32 33 34 35 36 37 38 39 40 41 42 43 44 45 46 47 48 49 50
916
NZUS59 KLOT 100903
HRRLOT

CHICAGO AREA WEATHER ROUNDUP
NATIONAL WEATHER SERVICE CHICAGO/ROMEOVILLE IL
300 AM CST WED FEB 10 2016

NOTE: "FAIR" INDICATES FEW OR NO CLOUDS BELOW 12,000 FEET WITH NO
SIGNIFICANT WEATHER AND/OR OBSTRUCTIONS TO VISIBILITY.

* THESE STATIONS ARE NOT UNDER NWS QUALITY CONTROL. THEY ALSO MAY NOT
  REPORT WEATHER SUCH AS PRECIPITATION OR FOG.

ILZ005-006-012>014-019>023-101000-
NORTHEAST ILLINOIS

CITY           SKY/WX    TMP DP  RH WIND       PRES   REMARKS
OHARE          PTCLDY    12   2  64 NW14      29.95S WCI  -3
MIDWAY         PTCLDY    14   2  58 NW13      29.96S WCI   0
AURORA         MOCLDY    12   3  67 NW15      29.99R WCI  -4
LANSING*       MOCLDY    14   4  65 NW14G21   29.95F WCI  -1
WAUKEGAN       PTCLDY    10   1  67 NW8       29.95R WCI  -2
DUPAGE AIRPORT CLEAR     11   1  64 NW14      29.96S WCI  -5
WHEELING       CLEAR     11   1  64 NW12      29.97S WCI  -3
MORRIS*        CLEAR     11   4  73 NW10      29.96S WCI  -2
$$

WIZ051-052-058>065-066-070>072-101000-
SOUTHEAST WISCONSIN

CITY           SKY/WX    TMP DP  RH WIND       PRES   REMARKS
MILWAUKEE      PTCLDY    11   0  61 NW10      29.94S WCI  -3
KENOSHA*       PTCLDY    11   1  64 NW10      29.95R WCI  -3
RACINE*        PTCLDY    11   0  61 NW8       29.96S WCI  -1
BURLINGTON     CLEAR      7  -2  68 NW10G16   29.96R WCI  -8
$$

INZ001>003-010>013-019-020-101000-
NORTHWEST INDIANA

CITY           SKY/WX    TMP DP  RH WIND       PRES   REMARKS
GARY*          CLOUDY    17   4  59 NW16      29.96S WCI   1
MICHIGAN CITY* NOT AVBL
RENSSELAER*    NOT AVBL
VALPARAISO     LGT SNOW  16  11  80 NW15G23   29.91S WCI   1
$$

LMZ740>746-101000-
SOUTHERN LAKE MICHIGAN

STATION/POSITION TIME  SKY/WX   TEMP WIND        PRES    VSBY
                                AIR  DIR/SP/G
                 (UTC)          (F)  (DEG/KT/KT) (MB)    (MI)
HARRISON CRIB    0800            16  310/ 25/ 29   N/A
BURNHAM HARBOR   0900            15  300/ 14/ 22   N/A
CALUMET HARBOR   0800            15  300/ 14/ 20 1013.7R
BURNS HARBOR     0812            19  310/ 23/ 25 1013.5R
MICHIGAN CITY    0800            20  280/ 30/ 33   N/A
$$

ABBREVIATIONS USED IN REMARKS
   TC - TEMPERATURE IN CELSIUS
  WCI - WIND CHILL INDEX
   HX - HEAT INDEX
  VSB - VISIBILITY
$$




USA.gov is the U.S. government's official web portal to all federal, state and local government web resources and services.